カタログに戻る

FENGYUN 1C DEB

運用中SSO
NORAD 36281·DEBRIS·🇨🇳 China

打ち上げ May 10, 1999 から Taiyuan Satellite Launch Center

Loading…

次のパス (今後24時間)

TLE

最新Source: Space-Track

元期: Sep 14, 2026, 12:58 UTC

1 36281U 99025DXJ 26257.54055382  .00002004  00000-0  20281-2 0  9990
2 36281  99.2531 170.4162 0286098 121.5577 241.3841 13.61676722882690

AllMySatでFENGYUN 1C DEBをリアルタイム追跡

Download on the App Store